カタログに戻る

STARLINK-32296

運用中通信VLEO
NORAD 61524·PAYLOAD·🇺🇸 United States

打ち上げ Oct 15, 2024 から Cape Canaveral Space Force Station

Loading…

次のパス (今後24時間)

TLE

最新Source: CelesTrak SupGP

元期: Sep 14, 2026, 20:39 UTC

1 61524C 24183R   26257.86090278 -.00014829  00000+0 -47693-3 0  2572
2 61524  53.1601 342.0704 0001210  77.2582 123.3829 15.31705985    14

AllMySatでSTARLINK-32296をリアルタイム追跡

Download on the App Store